Charles City, IA

3:37 PM CST on January 19, 2018 (GMT -0600)
Charles City Municipal

Weather History for KCCY - April, 2013

Change the Weather History Date:

Monday, April 1, 2013

  Actual Average Record
Temperature  
Mean Temperature 27 °F -  
Max Temperature 33 °F 50 °F 78 °F (2015)
Min Temperature 21 °F 30 °F 15 °F (1975)
Degree Days  
Heating Degree Days 38    
Moisture  
Dew Point 17 °F    
Average Humidity 65    
Maximum Humidity 80    
Minimum Humidity 48    
Precipitation  
Precipitation 0.00 in - - ()
Sea Level Pressure  
Sea Level Pressure 30.19 in    
Wind  
Wind Speed 16 mph (NW)    
Max Wind Speed 20 mph    
Max Gust Speed 29 mph    
Visibility 10 miles    
Events      
Averages and records for this station are not official NWS values.
T = Trace of Precipitation, MM = Missing Value Source: NWS Daily Summary

Daily Weather History Graph

Daily Weather History Graph

Search for Another Location

Airport or City:

Trip Planner

Search our weather history database for the weather conditions in past years. The results will help you decide how hot, cold, wet, or windy it might be!

Date:

Astronomy

Apr. 01, 2013 Rise Set
Actual Time 6:51 AM CDT 7:37 PM CDT
Civil Twilight 6:23 AM CDT 8:05 PM CDT
Nautical Twilight 5:49 AM CDT 8:40 PM CDT
Astronomical Twilight 5:13 AM CDT 9:15 PM CDT
Moon 12:52 AM CDT (4/1) 10:32 AM CDT (4/1)
Length of Visible Light 13h 42m
Length of Day
12h 45m
Waning Gibbous, 67% of the Moon is Illuminated
Apr 1
Waning Gibbous
Apr 2
Last Quarter
Apr 10
New
Apr 18
First Quarter
Apr 25
Full

Hourly Weather History & Observations

Time (CDT) Temp. Windchill Dew Point Humidity Pressure Visibility Wind Dir Wind Speed Gust Speed Precip Events Conditions
12:15 AM 28.4 °F 15.4 °F 17.6 °F 64% 30.06 in 10.0 mi NW 19.6 mph 28.8 mph N/A   Clear
12:35 AM 28.4 °F 15.8 °F 19.4 °F 69% 30.06 in 10.0 mi NNW 18.4 mph - N/A   Clear
12:55 AM 26.6 °F 13.4 °F 17.6 °F 69% 30.07 in 10.0 mi NNW 18.4 mph 25.3 mph N/A   Clear
1:15 AM 26.6 °F 13.1 °F 15.8 °F 64% 30.07 in 10.0 mi NW 19.6 mph 26.5 mph N/A   Clear
1:35 AM 26.6 °F 13.8 °F 17.6 °F 69% 30.08 in 10.0 mi NW 17.3 mph 25.3 mph N/A   Clear
1:55 AM 26.6 °F 13.1 °F 17.6 °F 69% 30.09 in 10.0 mi NW 19.6 mph - N/A   Clear
2:15 AM 24.8 °F 11.5 °F 17.6 °F 74% 30.09 in 10.0 mi NW 17.3 mph 23.0 mph N/A   Clear
2:35 AM 24.8 °F 12.4 °F 17.6 °F 74% 30.09 in 10.0 mi NW 15.0 mph 21.9 mph N/A   Clear
2:55 AM 24.8 °F 12.4 °F 17.6 °F 74% 30.10 in 10.0 mi NW 15.0 mph 23.0 mph N/A   Clear
3:15 AM 24.8 °F 12.9 °F 17.6 °F 74% 30.10 in 10.0 mi NW 13.8 mph - N/A   Clear
3:35 AM 24.8 °F 12.4 °F 17.6 °F 74% 30.11 in 10.0 mi NW 15.0 mph 20.7 mph N/A   Clear
3:55 AM 23.0 °F 10.1 °F 15.8 °F 74% 30.11 in 10.0 mi NW 15.0 mph 21.9 mph N/A   Clear
4:15 AM 23.0 °F 9.6 °F 15.8 °F 74% 30.12 in 10.0 mi NW 16.1 mph - N/A   Partly Cloudy
4:35 AM 23.0 °F 10.1 °F 15.8 °F 74% 30.13 in 10.0 mi NW 15.0 mph 20.7 mph N/A   Partly Cloudy
4:55 AM 23.0 °F 9.6 °F 15.8 °F 74% 30.13 in 10.0 mi NW 16.1 mph - N/A   Partly Cloudy
5:15 AM 23.0 °F 10.1 °F 15.8 °F 74% 30.14 in 10.0 mi NW 15.0 mph - N/A   Mostly Cloudy
5:35 AM 23.0 °F 9.6 °F 15.8 °F 74% 30.14 in 10.0 mi NW 16.1 mph 23.0 mph N/A   Mostly Cloudy
5:55 AM 23.0 °F 10.1 °F 15.8 °F 74% 30.15 in 10.0 mi NW 15.0 mph - N/A   Mostly Cloudy
6:15 AM 23.0 °F 9.2 °F 15.8 °F 74% 30.16 in 10.0 mi NW 17.3 mph 23.0 mph N/A   Scattered Clouds
6:35 AM 21.2 °F 8.3 °F 14.0 °F 74% 30.17 in 10.0 mi NNW 13.8 mph 20.7 mph N/A   Partly Cloudy
6:55 AM 21.2 °F 7.8 °F 14.0 °F 74% 30.18 in 10.0 mi NNW 15.0 mph - N/A   Scattered Clouds
7:15 AM 21.2 °F 7.8 °F 15.8 °F 80% 30.19 in 10.0 mi NW 15.0 mph - N/A   Mostly Cloudy
7:35 AM 21.2 °F 6.8 °F 14.0 °F 74% 30.19 in 10.0 mi NW 17.3 mph - N/A   Mostly Cloudy
7:55 AM 21.2 °F 7.3 °F 14.0 °F 74% 30.20 in 10.0 mi NW 16.1 mph 23.0 mph N/A   Scattered Clouds
8:15 AM 23.0 °F 9.2 °F 14.0 °F 68% 30.20 in 10.0 mi NNW 17.3 mph - N/A   Scattered Clouds
8:35 AM 23.0 °F 9.6 °F 14.0 °F 68% 30.20 in 10.0 mi NNW 16.1 mph - N/A   Partly Cloudy
8:55 AM 24.8 °F 12.4 °F 15.8 °F 69% 30.21 in 10.0 mi NW 15.0 mph - N/A   Mostly Cloudy
9:15 AM 24.8 °F 12.4 °F 15.8 °F 69% 30.22 in 10.0 mi WNW 15.0 mph - N/A   Overcast
9:35 AM 23.0 °F 9.6 °F 15.8 °F 74% 30.22 in 10.0 mi NW 16.1 mph - N/A   Mostly Cloudy
9:55 AM 24.8 °F 11.9 °F 15.8 °F 69% 30.22 in 10.0 mi NW 16.1 mph - N/A   Scattered Clouds
10:15 AM 24.8 °F 11.5 °F 14.0 °F 64% 30.22 in 10.0 mi NNW 17.3 mph - N/A   Clear
10:35 AM 26.6 °F 13.8 °F 15.8 °F 64% 30.22 in 10.0 mi NNW 17.3 mph 23.0 mph N/A   Clear
10:55 AM 26.6 °F 14.3 °F 15.8 °F 64% 30.23 in 10.0 mi NW 16.1 mph - N/A   Mostly Cloudy
11:15 AM 26.6 °F 14.3 °F 15.8 °F 64% 30.24 in 10.0 mi NW 16.1 mph 23.0 mph N/A   Mostly Cloudy
11:35 AM 26.6 °F 13.8 °F 15.8 °F 64% 30.24 in 10.0 mi NW 17.3 mph 25.3 mph N/A   Mostly Cloudy
11:55 AM 28.4 °F 17.0 °F 17.6 °F 64% 30.25 in 10.0 mi NNW 15.0 mph 21.9 mph N/A   Partly Cloudy
12:15 PM 28.4 °F 17.5 °F 15.8 °F 59% 30.25 in 10.0 mi NW 13.8 mph 21.9 mph N/A   Partly Cloudy
12:35 PM 30.2 °F 19.3 °F 19.4 °F 64% 30.25 in 10.0 mi NW 15.0 mph 21.9 mph N/A   Partly Cloudy
12:55 PM 30.2 °F 18.9 °F 17.6 °F 60% 30.24 in 10.0 mi NW 16.1 mph 21.9 mph N/A   Partly Cloudy
1:15 PM 30.2 °F 18.9 °F 17.6 °F 60% 30.24 in 10.0 mi NW 16.1 mph 21.9 mph N/A   Partly Cloudy
1:35 PM 30.2 °F 19.8 °F 17.6 °F 60% 30.24 in 10.0 mi NW 13.8 mph 20.7 mph N/A   Scattered Clouds
1:55 PM 30.2 °F 19.3 °F 17.6 °F 60% 30.24 in 10.0 mi NNW 15.0 mph - N/A   Scattered Clouds
2:15 PM 30.2 °F 19.3 °F 17.6 °F 60% 30.24 in 10.0 mi NW 15.0 mph 25.3 mph N/A   Partly Cloudy
2:35 PM 32.0 °F 21.2 °F 17.6 °F 55% 30.23 in 10.0 mi NW 16.1 mph 23.0 mph N/A   Scattered Clouds
2:55 PM 32.0 °F 20.8 °F 17.6 °F 55% 30.23 in 10.0 mi WNW 17.3 mph 24.2 mph N/A   Scattered Clouds
3:15 PM 32.0 °F 21.6 °F 17.6 °F 55% 30.23 in 10.0 mi NW 15.0 mph 24.2 mph N/A   Partly Cloudy
3:35 PM 33.8 °F 22.8 °F 17.6 °F 52% 30.23 in 10.0 mi NNW 18.4 mph - N/A   Scattered Clouds
3:55 PM 33.8 °F 22.5 °F 19.4 °F 56% 30.22 in 10.0 mi NNW 19.6 mph - N/A   Scattered Clouds
4:15 PM 33.8 °F 22.8 °F 17.6 °F 52% 30.22 in 10.0 mi NNW 18.4 mph - N/A   Scattered Clouds
4:35 PM 33.8 °F 24.3 °F 17.6 °F 52% 30.22 in 10.0 mi NW 13.8 mph 24.2 mph N/A   Partly Cloudy
4:55 PM 33.8 °F 22.8 °F 17.6 °F 52% 30.22 in 10.0 mi NNW 18.4 mph - N/A   Partly Cloudy
5:15 PM 33.8 °F 23.5 °F 17.6 °F 52% 30.22 in 10.0 mi NW 16.1 mph 25.3 mph N/A   Clear
5:35 PM 33.8 °F 22.8 °F 17.6 °F 52% 30.22 in 10.0 mi NW 18.4 mph - N/A   Clear
5:55 PM 33.8 °F 22.8 °F 15.8 °F 48% 30.22 in 10.0 mi NW 18.4 mph - N/A   Clear
6:15 PM 32.0 °F 22.1 °F 17.6 °F 55% 30.22 in 10.0 mi NNW 13.8 mph 20.7 mph N/A   Clear
6:35 PM 32.0 °F 20.5 °F 15.8 °F 51% 30.22 in 10.0 mi NNW 18.4 mph - N/A   Clear
6:55 PM 32.0 °F 21.6 °F 15.8 °F 51% 30.22 in 10.0 mi NNW 15.0 mph - N/A   Clear
7:15 PM 32.0 °F 21.6 °F 15.8 °F 51% 30.21 in 10.0 mi NNW 15.0 mph - N/A   Clear
7:35 PM 32.0 °F 23.0 °F 17.6 °F 55% 30.22 in 10.0 mi NW 11.5 mph - N/A   Clear
7:55 PM 30.2 °F 21.9 °F 19.4 °F 64% 30.22 in 10.0 mi NW 9.2 mph - N/A   Clear
8:15 PM 30.2 °F 21.3 °F 19.4 °F 64% 30.22 in 10.0 mi NW 10.4 mph - N/A   Clear
8:35 PM 30.2 °F 21.9 °F 19.4 °F 64% 30.23 in 10.0 mi NW 9.2 mph - N/A   Clear
8:55 PM 30.2 °F 22.6 °F 19.4 °F 64% 30.23 in 10.0 mi NW 8.1 mph - N/A   Clear
9:15 PM 28.4 °F 20.4 °F 19.4 °F 69% 30.24 in 10.0 mi NW 8.1 mph - N/A   Clear
9:35 PM 28.4 °F 19.7 °F 19.4 °F 69% 30.24 in 10.0 mi WNW 9.2 mph - N/A   Clear
9:55 PM 28.4 °F 19.1 °F 19.4 °F 69% 30.24 in 10.0 mi NW 10.4 mph - N/A   Clear
10:15 PM 28.4 °F 20.4 °F 19.4 °F 69% 30.25 in 10.0 mi NW 8.1 mph - N/A   Clear
10:35 PM 28.4 °F 21.2 °F 19.4 °F 69% 30.25 in 10.0 mi WNW 6.9 mph - N/A   Clear
10:55 PM 28.4 °F 21.2 °F 21.2 °F 74% 30.25 in 10.0 mi West 6.9 mph - N/A   Clear
11:15 PM 28.4 °F 20.4 °F 21.2 °F 74% 30.25 in 10.0 mi WNW 8.1 mph - N/A   Clear
11:35 PM 28.4 °F 19.7 °F 21.2 °F 74% 30.25 in 10.0 mi NW 9.2 mph - N/A   Clear
11:55 PM 28.4 °F 19.1 °F 19.4 °F 69% 30.25 in 10.0 mi WNW 10.4 mph - N/A   Clear